Location: Ostrava
(49.8330°N, 18.2830°E)
Time: 21:18:25
(UTC+02:00)

NOAA 19 - Visible Passes

Search period start: 24 April 2014 00:00
Search period end: 04 May 2014 00:00
Orbit: 844 x 863 km, 98.9° (Epoch: 24 April)

Date Brightness Start Highest point End Pass type
(mag) Time Alt. Az. Time Alt. Az. Time Alt. Az.
24 Apr 7.1 01:49:17 10° NE 01:53:26 21° E 01:55:46 17° ESE visible
24 Apr 5.3 03:29:09 10° NNE 03:34:42 70° WNW 03:37:50 27° SSW visible
25 Apr 7.3 01:38:41 10° NE 01:42:17 17° E 01:44:44 13° ESE visible
25 Apr 5.2 03:18:08 10° NNE 03:23:44 83° WNW 03:26:48 28° SSW visible
26 Apr 7.5 01:28:16 10° NE 01:31:07 14° E 01:33:41 11° ESE visible
26 Apr 5.2 03:07:08 10° NNE 03:12:44 82° ESE 03:15:45 28° S visible
26 Apr 6.8 04:48:52 10° N 04:52:51 21° NW 04:56:49 10° W visible
27 Apr 7.6 01:18:18 10° ENE 01:19:56 11° E 01:21:33 10° E visible
27 Apr 5.4 02:56:09 10° NNE 03:01:43 68° ESE 03:04:43 28° S visible
27 Apr 6.6 04:37:38 10° N 04:41:59 24° WNW 04:46:19 10° WSW visible
28 Apr 5.7 02:45:12 10° NNE 02:50:41 56° E 02:53:40 27° S visible
28 Apr 6.4 04:26:27 10° N 04:31:07 28° WNW 04:35:44 10° WSW visible
29 Apr 6.0 02:34:16 10° NNE 02:39:38 46° E 02:42:37 24° SSE visible
29 Apr 6.2 04:15:18 10° N 04:20:13 33° WNW 04:24:41 12° WSW visible
30 Apr 6.3 02:23:23 10° NNE 02:28:34 38° E 02:31:34 22° SSE visible
30 Apr 5.9 04:04:11 10° N 04:09:19 40° WNW 04:13:38 14° SW visible
01 May 6.6 02:12:32 10° NNE 02:17:28 32° E 02:20:30 19° SE visible
01 May 5.7 03:53:05 10° N 03:58:23 47° WNW 04:02:34 16° SW visible
02 May 6.8 02:01:45 10° NE 02:06:21 26° E 02:09:27 16° SE visible
02 May 5.5 03:42:00 10° N 03:47:26 57° WNW 03:51:31 18° SW visible
03 May 7.1 01:51:01 10° NE 01:55:13 22° E 01:58:23 14° SE visible
03 May 5.3 03:30:57 10° N 03:36:29 68° WNW 03:40:27 19° SSW visible
